User: anonymous   Login
Location: Penticton
(49.5000°N, 119.5830°W)
Time: 05:20:21
(UTC-08:00)
Language:

NOSS 3-4 (A) - Orbit

View from above orbital plane
View from above orbital plane
View from above satellite
View from above satellite

Ground track
Ground track

The orbit data is extracted from the following two-line orbital elements,

1 31701U 07027A   17021.23286262 0.00000000  00000-0  00000-0 0    03
2 31701  63.4029  98.0119 0179000  24.7577 335.2423 13.40723108    06
Epoch (UTC): 21 January 2017 05:35:19
Eccentricity: 0.0179000
inclination: 63.4029°
perigee height: 972 km
apogee height: 1240 km
right ascension of ascending node: 98.0119°
argument of perigee: 24.7577°
revolutions per day: 13.40723108
mean anomaly at epoch: 335.2423°
orbit number at epoch: 0

The dashed part of the orbit path shows where the satellite is in the earth's shadow,  

DLR